一网星座-0301星 (ONEWEB-0301 )

导读

ONEWEB-0301是英国OneWeb(一网)低轨卫星互联网星座的组网卫星,于2021年8月21日发射入轨,属于OneWeb首批全球覆盖组网卫星批次。该卫星运行在近地轨道,为OneWeb构建全球高速低延迟卫星互联网提供支撑,服务覆盖偏远地区通信、企业专网及政府用户,是OneWeb实现全球宽带接入布局的重要组成部分,推动了全球空天地一体化网络的建设进程。

Basic Information
目录编号:
49090
目录名称:
ONEWEB-0301
国际标识:
2021-075R
轨道中心:
EARTH
卫星名称:
一网星座-0301星
卫星全名:
一网星座-0301星 (ONEWEB-0301 )
卫星状态:
在轨 (已飞行1802 天)
发射日期:
2021-08-21 UTC
国别 :
英国 (GB)
星等 :
--
Orbit Information
数据来源 国际轨道数据 AOE轨道数据
星历时间 2026-07-27T16:11:40+0800
18小时前
查看轨道信息
2026-07-25T06:00:00+0800
3天前
查看轨道信息
半长轴 7591.855km 7591.85km
偏心率 0.0001649 0.0000924
轨道倾角 87.898° 87.895°
近地点辐角 107.004° 58.730°
升交点赤经 342.675° 343.148°
平近点角 253.126° 11.348°
近地点 1212.466km 1213.011km
远地点 1214.97km 1214.415km
周期 109.719分钟 109.719分钟
每日圈数 13.124446 13.124459
Detailed Information
平衡模式:
三轴稳定
覆盖范围:
全球
运营商:
一网卫星公司
运营商所在国:
英国
制造商(研发单位):
一网卫星公司
制造商所在国:
英国
使用方式:
暂无
Satellite Introduction
OneWeb卫星网络由648颗重约125公斤的微型卫星组成,运行在1200公里的轨道上。 每颗卫星都能够提供至少每秒8千兆位的吞吐量,以使用其高吞吐量的Ku频段有效载荷为家庭和移动平台提供互联网接入。该卫星仍在工作。
2D Orbit Map
3D Orbit Map
Orbit Altitude Analysis Chart
Orbit Inclination Analysis Chart
Orbit Comprehensive Analysis Chart
View Comprehensive Chart